Portada
METAR-TAF:

METAR-TAF

Aeroports :

Cairo Regional Airport

Cairo, Illinois, Estats Units d'Amèrica

latitud: 37-03-52N, longitud: 089-13-10W, altitud: 98 m

Observació

L'informe es va fer fa 30 minuts, a les 10:15 UTC
Vent 6 kt del Sud-Oest
Temperatura 24°C
Humitat 78%
Pressió 1011 hPa
Visibilitat: 16.1 km
Cel ennuvolat a una alçada de 3800 ft
Cel cobert a una alçada de 4700 ft

METAR: KCIR 221015Z AUTO 23006KT 10SM BKN038 OVC047 24/20 A2984 RMK AO2 T02410200

Hora: 05:45 (10:45 UTC)


TAF: manca

Observacions i pronòstics meteorològics de més de 4000 aeroports (METAR i TAF).

Les estacions disponibles són els punts grocs i vermells al mapa.

Posi el ratolí al punt desitjat per veure el nom de l'estació.

Feu clic per veure les observacions i els pronòstics meteorològics.

Per canviar el mapa: feu clic els botons verds amb una creu de color negre per apropar; al botó verd amb un guió per allunyar la imatge; o en les fletxes verdes per a mapes adjacents.


METAR-TAF: